Hannibal Rgnl AP, Hannibal, M, MO

1:12 AM CST on November 15, 2019 (GMT -0600)
Hannibal Municipal

Weather History for KHAE - October, 2019

Change the Weather History Date:

Tuesday, October 22, 2019

  Actual Average Record
Temperature  
Mean Temperature 52 °F -  
Max Temperature 59 °F 65 °F 78 °F (2015)
Min Temperature 42 °F 43 °F 35 °F (2013)
Degree Days  
Heating Degree Days 14    
Growing Degree Days 2 (Base 50)    
Moisture  
Dew Point 32 °F    
Average Humidity 50    
Maximum Humidity 66    
Minimum Humidity 27    
Precipitation  
Precipitation 0.00 in - - ()
Sea Level Pressure  
Sea Level Pressure 29.83 in    
Wind  
Wind Speed 15 mph ()    
Max Wind Speed 25 mph    
Max Gust Speed 33 mph    
Visibility 10.0 miles    
Events      
Averages and records for this station are not official NWS values.
T = Trace of Precipitation, MM = Missing Value Source: Averaged Metar Reports

Daily Weather History Graph

Daily Weather History Graph

Search for Another Location

Airport or City:

Astronomy

Oct. 22, 2019 Rise Set
Actual Time 7:23 AM CDT 6:16 PM CDT
Civil Twilight 6:55 AM CDT 6:44 PM CDT
Nautical Twilight 6:24 AM CDT 7:15 PM CDT
Astronomical Twilight 5:52 AM CDT 7:46 PM CDT
Moon 12:34 AM CDT (10/22) 3:25 PM CDT (10/22)
Length of Visible Light 11h 48m
Length of Day
10h 53m
Last Quarter, 37% of the Moon is Illuminated
Oct 22
Last Quarter
Oct 27
New
Nov 4
First Quarter
Nov 12
Full
Nov 19
Last Quarter

Hourly Weather History & Observations

Time (CDT) Temp. Windchill Dew Point Humidity Pressure Visibility Wind Dir Wind Speed Gust Speed Precip Events Conditions
12:15 AM 51.8 °F - 37.4 °F 58% 29.69 in 10.0 mi WSW 12.7 mph 21.9 mph N/A   Overcast
12:35 AM 51.8 °F - 37.4 °F 58% 29.70 in 10.0 mi WSW 11.5 mph - N/A   Mostly Cloudy
12:55 AM 51.8 °F - 37.4 °F 58% 29.69 in 10.0 mi WSW 16.1 mph 25.3 mph N/A   Scattered Clouds
1:15 AM 51.8 °F - 35.6 °F 54% 29.70 in 10.0 mi West 18.4 mph 26.5 mph N/A   Scattered Clouds
1:35 AM 51.8 °F - 35.6 °F 54% 29.70 in 10.0 mi WSW 13.8 mph 21.9 mph N/A   Mostly Cloudy
1:55 AM 51.8 °F - 35.6 °F 54% 29.70 in 10.0 mi West 18.4 mph 27.6 mph N/A   Mostly Cloudy
2:15 AM 51.8 °F - 35.6 °F 54% 29.71 in 10.0 mi West 16.1 mph 27.6 mph N/A   Overcast
2:55 AM 51.8 °F - 35.6 °F 54% 29.71 in 10.0 mi West 20.7 mph 26.5 mph N/A   Overcast
3:15 AM 51.8 °F - 35.6 °F 54% 29.71 in 10.0 mi WSW 13.8 mph 24.2 mph N/A   Overcast
3:35 AM 51.8 °F - 35.6 °F 54% 29.71 in 10.0 mi West 13.8 mph 25.3 mph N/A   Overcast
3:55 AM 50.0 °F - 35.6 °F 58% 29.72 in 10.0 mi WSW 15.0 mph 25.3 mph N/A   Overcast
4:15 AM 50.0 °F - 35.6 °F 58% 29.73 in 10.0 mi WSW 18.4 mph 25.3 mph N/A   Overcast
4:35 AM 50.0 °F - 35.6 °F 58% 29.73 in 10.0 mi WSW 18.4 mph 27.6 mph N/A   Overcast
4:55 AM 50.0 °F - 35.6 °F 58% 29.73 in 10.0 mi WSW 19.6 mph 26.5 mph N/A   Overcast
5:15 AM 50.0 °F - 35.6 °F 58% 29.74 in 10.0 mi WSW 17.3 mph 26.5 mph N/A   Overcast
5:35 AM 50.0 °F - 35.6 °F 58% 29.75 in 10.0 mi WSW 16.1 mph 25.3 mph N/A   Overcast
5:55 AM 50.0 °F - 35.6 °F 58% 29.76 in 10.0 mi WSW 16.1 mph 21.9 mph N/A   Overcast
6:35 AM 48.2 °F - 35.6 °F 62% 29.76 in 10.0 mi WSW 18.4 mph 25.3 mph N/A   Overcast
6:55 AM 46.4 °F 40.7 °F 35.6 °F 66% 29.76 in 10.0 mi WSW 12.7 mph 28.8 mph N/A   Scattered Clouds
7:15 AM 46.4 °F 40.7 °F 35.6 °F 66% 29.76 in 10.0 mi WSW 12.7 mph 19.6 mph N/A   Clear
7:35 AM 46.4 °F 40.4 °F 35.6 °F 66% 29.78 in 10.0 mi WSW 13.8 mph 20.7 mph N/A   Scattered Clouds
7:55 AM 46.4 °F 39.8 °F 35.6 °F 66% 29.78 in 10.0 mi WSW 16.1 mph 21.9 mph N/A   Overcast
8:15 AM 46.4 °F 39.8 °F 33.8 °F 62% 29.79 in 10.0 mi West 16.1 mph - N/A   Mostly Cloudy
8:35 AM 46.4 °F 39.2 °F 33.8 °F 62% 29.80 in 10.0 mi WSW 18.4 mph 25.3 mph N/A   Mostly Cloudy
8:55 AM 46.4 °F 39.5 °F 33.8 °F 62% 29.81 in 10.0 mi West 17.3 mph 26.5 mph N/A   Mostly Cloudy
9:15 AM 48.2 °F - 33.8 °F 58% 29.82 in 10.0 mi West 25.3 mph 31.1 mph N/A   Scattered Clouds
9:35 AM 48.2 °F - 33.8 °F 58% 29.83 in 10.0 mi West 24.2 mph 32.2 mph N/A   Scattered Clouds
9:55 AM 50.0 °F - 33.8 °F 54% 29.83 in 10.0 mi West 24.2 mph 31.1 mph N/A   Clear
10:15 AM 50.0 °F - 33.8 °F 54% 29.84 in 10.0 mi West 25.3 mph 33.4 mph N/A   Clear
10:35 AM 51.8 °F - 32.0 °F 47% 29.84 in 10.0 mi West 24.2 mph 29.9 mph N/A   Clear
11:15 AM 53.6 °F - 33.8 °F 47% 29.86 in 10.0 mi West 19.6 mph 25.3 mph N/A   Clear
11:35 AM 53.6 °F - 33.8 °F 47% 29.86 in 10.0 mi West 23.0 mph 31.1 mph N/A   Clear
11:55 AM 53.6 °F - 32.0 °F 44% 29.86 in 10.0 mi West 21.9 mph 26.5 mph N/A   Clear
12:15 PM 55.4 °F - 32.0 °F 41% 29.87 in 10.0 mi West 17.3 mph 26.5 mph N/A   Clear
12:35 PM 55.4 °F - 32.0 °F 41% 29.86 in 10.0 mi West 19.6 mph 29.9 mph N/A   Scattered Clouds
12:55 PM 55.4 °F - 32.0 °F 41% 29.86 in 10.0 mi WSW 20.7 mph 29.9 mph N/A   Clear
1:15 PM 57.2 °F - 32.0 °F 38% 29.85 in 10.0 mi WSW 18.4 mph 26.5 mph N/A   Clear
1:35 PM 57.2 °F - 32.0 °F 38% 29.85 in 10.0 mi West 17.3 mph 26.5 mph N/A   Clear
1:55 PM 57.2 °F - 32.0 °F 38% 29.85 in 10.0 mi West 18.4 mph 29.9 mph N/A   Scattered Clouds
2:35 PM 57.2 °F - 30.2 °F 36% 29.86 in 10.0 mi West 21.9 mph 27.6 mph N/A   Scattered Clouds
2:55 PM 57.2 °F - 28.4 °F 33% 29.86 in 10.0 mi West 24.2 mph 29.9 mph N/A   Clear
3:15 PM 59.0 °F - 26.6 °F 29% 29.87 in 10.0 mi WSW 19.6 mph 27.6 mph N/A   Clear
3:55 PM 57.2 °F - 24.8 °F 29% 29.88 in 10.0 mi West 20.7 mph 31.1 mph N/A   Clear
4:35 PM 57.2 °F - 23.0 °F 27% 29.89 in 10.0 mi West 19.6 mph 26.5 mph N/A   Clear
4:55 PM 55.4 °F - 23.0 °F 29% 29.90 in 10.0 mi West 15.0 mph 23.0 mph N/A   Clear
5:15 PM 55.4 °F - 23.0 °F 29% 29.90 in 10.0 mi West 18.4 mph 28.8 mph N/A   Clear
5:35 PM 55.4 °F - 23.0 °F 29% 29.91 in 10.0 mi West 12.7 mph - N/A   Clear
5:55 PM 53.6 °F - 23.0 °F 30% 29.91 in 10.0 mi West 16.1 mph 23.0 mph N/A   Clear
6:15 PM 51.8 °F - 26.6 °F 38% 29.92 in 10.0 mi West 9.2 mph - N/A   Clear
6:35 PM 50.0 °F - 26.6 °F 40% 29.93 in 10.0 mi WSW 8.1 mph - N/A   Clear
6:55 PM 50.0 °F - 28.4 °F 43% 29.93 in 10.0 mi WSW 8.1 mph - N/A   Clear
7:15 PM 46.4 °F 43.5 °F 28.4 °F 50% 29.94 in 10.0 mi WSW 5.8 mph - N/A   Clear
7:35 PM 46.4 °F 43.5 °F 28.4 °F 50% 29.95 in 10.0 mi WSW 5.8 mph - N/A   Clear
7:55 PM 46.4 °F 42.9 °F 28.4 °F 50% 29.96 in 10.0 mi WSW 6.9 mph - N/A   Clear
8:15 PM 46.4 °F 43.5 °F 28.4 °F 50% 29.96 in 10.0 mi WSW 5.8 mph - N/A   Clear
8:55 PM 46.4 °F 43.5 °F 28.4 °F 50% 29.96 in 10.0 mi SW 5.8 mph - N/A   Clear
9:15 PM 46.4 °F 43.5 °F 28.4 °F 50% 29.96 in 10.0 mi SW 5.8 mph - N/A   Clear
9:35 PM 44.6 °F 40.7 °F 28.4 °F 53% 29.96 in 10.0 mi SW 6.9 mph - N/A   Clear
9:55 PM 46.4 °F 42.9 °F 28.4 °F 50% 29.96 in 10.0 mi SW 6.9 mph - N/A   Clear
10:15 PM 46.4 °F 43.5 °F 28.4 °F 50% 29.96 in 10.0 mi SW 5.8 mph - N/A   Clear
10:35 PM 44.6 °F 41.4 °F 28.4 °F 53% 29.96 in 10.0 mi SW 5.8 mph - N/A   Clear
10:55 PM 44.6 °F 40.7 °F 28.4 °F 53% 29.96 in 10.0 mi SSW 6.9 mph - N/A   Clear
11:55 PM 42.8 °F 39.3 °F 30.2 °F 61% 29.95 in 10.0 mi SSW 5.8 mph - N/A   Clear